• MPC Preparation (Info)

  • MPEC 2015-M67 : 2015 MQ101

    The following Minor Planet Electronic Circular may be linked-to from your own Web pages, but must not otherwise be redistributed electronically.

    A form allowing access to any MPEC is at the bottom of this page.


    Read MPEC 2015-M66 Read MPEC 2015-M68


    M.P.E.C. 2015-M67                                Issued 2015 June 28, 00:53 UT
    
         The Minor Planet Electronic Circulars contain information on unusual
             minor planets and routine data on comets.  They are published
       on behalf of Commission 20 of the International Astronomical Union by the
              Minor Planet Center, Smithsonian Astrophysical Observatory,
                              Cambridge, MA 02138, U.S.A.
    
                 Prepared using the Tamkin Foundation Computer Network
    
                                  MPC@CFA.HARVARD.EDU
                URL https://www.minorplanetcenter.net/    ISSN 1523-6714
    
                                      2015 MQ101
    
    Observations:
         K15MA1Q* C2015 06 24.32774 21 58 06.28 +18 40 45.0          20.0 VqEM067703
         K15MA1Q  C2015 06 24.33024 21 58 06.96 +18 41 03.5                qEM067703
         K15MA1Q  C2015 06 24.33274 21 58 07.55 +18 41 19.9          19.4 VqEM067703
         K15MA1Q  C2015 06 24.33525 21 58 08.13 +18 41 36.2          19.4 VqEM067703
         K15MA1Q  C2015 06 24.36277 21 58 15.05 +18 44 46.8          19.5 VqEM067703
         K15MA1Q  C2015 06 24.36345 21 58 15.16 +18 44 50.9          19.3 VqEM067703
         K15MA1Q  C2015 06 24.36412 21 58 15.42 +18 44 56.4          19.0 VqEM067703
         K15MA1Q  C2015 06 24.44886 21 58 36.51 +18 54 39.6          19.4 VqEM067703
         K15MA1Q  C2015 06 24.45060 21 58 36.89 +18 54 51.3          19.7 VqEM067703
         K15MA1Q  C2015 06 24.45233 21 58 37.32 +18 55 03.6          19.4 VqEM067703
         K15MA1Q  C2015 06 24.45408 21 58 37.76 +18 55 15.7          19.6 VqEM067703
         K15MA1Q  C2015 06 25.37379 22 02 39.98 +20 41 22.6          19.1 VqEM067703
         K15MA1Q  C2015 06 25.37485 22 02 40.26 +20 41 31.1          19.7 VqEM067703
         K15MA1Q  C2015 06 25.37552 22 02 40.41 +20 41 36.3          19.9 VqEM067703
         K15MA1Q  C2015 06 25.37620 22 02 40.56 +20 41 39.8          19.3 VqEM067703
         K15MA1Q  C2015 06 25.37808 22 02 41.08 +20 41 54.7          19.7 VqEM067703
         K15MA1Q KC2015 06 26.94345 22 09 51.15 +23 45 24.3          19.4 RtEM067204
         K15MA1Q KC2015 06 26.95153 22 09 53.40 +23 46 22.0                tEM067204
         K15MA1Q KC2015 06 26.96375 22 09 56.81 +23 47 49.3                tEM067204
         K15MA1Q KC2015 06 27.00230 22 10 07.62 +23 52 26.0          19.2 RqEM067160
         K15MA1Q KC2015 06 27.00504 22 10 08.33 +23 52 44.9          19.4 RqEM067160
         K15MA1Q KC2015 06 27.00641 22 10 08.68 +23 52 54.9          19.5 RqEM067160
         K15MA1Q KC2015 06 27.00777 22 10 09.05 +23 53 04.7          21.7 RqEM067160
         K15MA1Q KC2015 06 27.01052 22 10 09.79 +23 53 24.1          19.8 RqEM067160
         K15MA1Q 9C2015 06 27.16127 22 10 52.11 +24 11 24.8          19.3 VqEM067G40
         K15MA1Q 9C2015 06 27.17435 22 10 55.71 +24 12 57.8          19.5 VqEM067G40
         K15MA1Q KC2015 06 28.00658 22 14 57.35 +25 51 44.3          19.8 VqEM067I93
         K15MA1Q KC2015 06 28.01514 22 14 59.84 +25 52 45.9          19.6 VqEM067I93
         K15MA1Q KC2015 06 28.03024 22 15 04.16 +25 54 34.2          19.6 VqEM067I93
    
    Observer details:
    160 Castelmartini.  Observers M. Jaeger, E. Prosperi, S. Prosperi, W. Vollmann.
        Measurer E. Prosperi.  0.35-m f/10 Schmidt-Cassegrain + CCD.
    204 Schiaparelli Observatory.  Observer L. Buzzi.  0.60-m f/4.64 reflector
        + CCD.
    703 Catalina Sky Survey.  Observer R. E. Hill.  Measurers E. J. Christensen,
        D. C. Fuls, A. R. Gibbs, A. D. Grauer, R. E. Hill, J. A. Johnson,
        R. A. Kowalski, S. M. Larson, R. G. Matheny, F. C. Shelly.  0.68-m Schmidt
        + CCD.
    G40 Slooh.com Canary Islands Observatory.  Observer B. Lutkenhoner.  0.5-m
        f/6.8 Corrected Dall-Kirkham + CCD.
    I93 St Pardon de Conques.  Observer F. Losse.  0.40-m f/3.7 reflector + CCD.
    
    Orbital elements:
    2015 MQ101                                               Earth MOID = 0.2130 AU
    Epoch 2015 June 27.0 TT = JDT 2457200.5                 MPC
    M 341.28090              (2000.0)            P               Q
    n   0.33717234     Peri.   91.21894     +0.92811714     +0.06692682
    a   2.0444104      Node   265.02877     -0.20066932     +0.91850749
    e   0.5587349      Incl.   21.56804     +0.31357679     +0.38969834
    P   2.92           H   19.6           G   0.15           U   7
    Residuals in seconds of arc
    150624 703  0.0   0.1-    150624 703  0.2-  0.1+    150627 160  0.5+  0.1-
    150624 703  0.7+  1.2+    150625 703  0.2+  1.3-    150627 160  0.1+  0.1+
    150624 703  0.2+  0.3+    150625 703  0.3+  0.2-    150627 160  0.1+  0.2+
    150624 703  0.5-  0.7-    150625 703  0.0   0.3+    150627 160  0.2-  0.0
    150624 703  0.0   0.2+    150625 703  0.4-  1.0-    150627 G40  0.1-  0.3+
    150624 703  0.8-  0.4-    150625 703  0.1+  0.8+    150627 G40  0.1+  0.1+
    150624 703  0.5+  0.4+    150626 204  0.0   0.2+    150628 I93  0.1-  0.0
    150624 703  0.5+  0.0     150626 204  0.1-  0.1+    150628 I93  0.2+  0.1-
    150624 703  0.2-  0.3-    150626 204  0.1-  0.2+    150628 I93  0.3-  0.4-
    150624 703  0.2-  0.1+    150627 160  1.2+  0.6+
    
    Ephemeris:
    2015 MQ101               a,e,i = 2.04, 0.56, 22                  q = 0.9021
    Date    TT    R. A. (2000) Decl.     Delta      r     Elong.  Phase     V
    2015 05 29    20 35 54.4 -15 51 31   0.5631  1.3825   119.8    39.5    20.6
    ...
    2015 06 13    21 16 57.5 -00 07 57   0.4057  1.2619   118.8    44.9    19.9
    ...
    2015 06 21    21 44 34.4 +12 32 23   0.3489  1.1993   113.6    50.9    19.6
    ...
    2015 06 27    22 10 05.6 +23 52 15   0.3234  1.1537   107.1    57.4    19.5
    2015 06 28    22 14 54.0 +25 51 04   0.3207  1.1463   105.8    58.6    19.5
    2015 06 29    22 19 53.6 +27 50 33   0.3185  1.1389   104.5    59.8    19.5
    ...
    2015 07 05    22 54 30.8 +39 38 20   0.3149  1.0958    96.1    67.3    19.7
    ...
    2015 07 13    23 57 04.8 +53 04 35   0.3335  1.0424    85.1    76.3    20.0
    ...
    2015 07 28    02 48 13.3 +64 48 57   0.4150  0.9602    70.5    85.5    20.6
    
    A. U. Tomatic                (C) Copyright 2015 MPC           M.P.E.C. 2015-M67
    

    Read MPEC 2015-M66 Read MPEC 2015-M68


    MPEC number:

    Enter an MPEC number in one of the following forms:

    • 1997-B01 (the full form)
    • J97B01 (the packed version of the full form)
    • B01 (the abbreviated form)